Simultaneous Nadir Overpasses (SNOs) Predictions

Prediction of SNOs between GOES-16 and METOP-B Satellite Orbit:

Table of predicted SNOs for the next 14.0 days since TLE Epoch: 4/4/2025
Index Date Time (GOES-16) GOES-16 Lat,Lon METOP-B Lat,Lon Distance(km) Time Diff (sec)
1 04/06/2025 14:10:47 0.06, -75.49 -0.08, -74.91 66.73 80
2 04/08/2025 02:29:49 -0.06, -75.48 -0.96, -79.53 461.76 80
3 04/09/2025 02:06:31 -0.05, -75.49 0.13, -74.55 106.09 80
4 04/10/2025 14:25:25 0.05, -75.52 0.84, -79.15 413.63 80
5 04/11/2025 14:07:27 0.05, -75.53 -0.25, -74.17 154.93 80
6 04/13/2025 02:26:29 -0.05, -75.53 -0.77, -78.79 371.89 80
7 04/14/2025 02:03:11 -0.05, -75.54 0.33, -73.81 196.70 80
8 04/15/2025 14:22:04 0.05, -75.57 0.69, -78.40 322.32 80
9 04/16/2025 14:04:06 0.05, -75.59 -0.42, -73.42 246.61 80
10 04/18/2025 02:23:08 -0.05, -75.59 -0.59, -78.05 279.64 80
